Regional Weather Roundup
Issued by NWS Sioux Falls, SD

Home | Current Version | Previous Version | Graphics & Text | Print | Product List | Glossary On
Versions: 1 2 3 4 5 6 7 8 9 10 11 12 13 14 15 16 17 18 19 20 21 22 23 24 25 26 27 28 29 30 31 32 33 34 35 36 37 38 39 40 41 42 43 44 45 46 47 48 49 50
000
ASUS43 KFSD 030910
RWRFSD

WEATHER ROUNDUP FOR SE SOUTH DAKOTA/SW MINNESOTA/NW IOWA
NATIONAL WEATHER SERVICE SIOUX FALLS SD
300 AM CST TUE MAR 03 2015

NOTE: "FAIR" INDICATES FEW OR NO CLOUDS BELOW 12,000 FEET WITH NO
SIGNIFICANT WEATHER AND OR OBSTRUCTIONS TO VISIBILITY.


SDZ038>040-050-052>070-031000-
SOUTHEAST SOUTH DAKOTA

CITY           SKY/WX    TMP DP  RH WIND       PRES   REMARKS
CHAMBERLAIN    CLOUDY    30  17  58 W3        29.65F
HURON          CLOUDY    28  20  71 SE7       29.69F WCI  21
MADISON        CLOUDY    23  23 100 S9        29.71F WCI  13
MITCHELL       CLOUDY    27  20  75 SE8       29.70F WCI  19
SIOUX FALLS    CLOUDY    25  19  78 S7        29.73F WCI  17
WINNER         CLOUDY    32  18  56 SW6       29.64F WCI  26
YANKTON        CLOUDY    28  18  64 SE7       29.72F WCI  21
$$

MNZ071-072-080-081-089-090-097-098-031000-
SOUTHWEST MINNESOTA

CITY           SKY/WX    TMP DP  RH WIND       PRES   REMARKS
FAIRMONT       CLOUDY    23  18  80 SE13      29.81F WCI  11
JACKSON        CLOUDY    25  21  86 SE9       29.79F WCI  15
LUVERNE        CLOUDY    27  21  80 S7        29.75F WCI  19
MARSHALL       CLOUDY    25  18  74 S12       29.78F WCI  14
MONTEVIDEO     CLOUDY    25  19  80 S12       29.79F WCI  14
PIPESTONE      CLOUDY    25  19  80 S13       29.73F WCI  13
REDWOOD FALLS  CLOUDY    23  18  81 SE13      29.81F WCI  11
TRACY          CLOUDY    26  21  82 S9        29.77F WCI  16
WINDOM         CLOUDY    23  19  86 SE7       29.78F WCI  15
WORTHINGTON    CLOUDY    23  18  80 S10       29.77F WCI  12
$$

IAZ001>003-012>014-020>022-031-032-NEZ013-014-SDZ071-031000-
NORTHWEST IOWA

CITY           SKY/WX    TMP DP  RH WIND       PRES   REMARKS
CHEROKEE       CLOUDY    26  22  85 SE7       29.77F WCI  19
DENISON        CLOUDY    30  25  80 S12       29.75F WCI  21
ESTHERVILLE    CLOUDY    23  19  85 SE12      29.79F WCI  12
LE MARS        CLOUDY    28  23  80 SE8       29.76F WCI  20
ORANGE CITY    CLOUDY    27  21  80 S7        29.75F WCI  19
SHELDON        CLOUDY    25  21  86 SE13      29.74F WCI  13
SIOUX CITY     CLOUDY    30  21  69 SE9       29.75F WCI  22
SPENCER        CLOUDY    26  19  74 SE10      29.77  WCI  16
STORM LAKE     CLOUDY    25  21  86 SE13      29.76F WCI  13
$$

ABBREVIATIONS USED IN REMARKS
   TC - TEMPERATURE IN CELSIUS
  WCI - WIND CHILL INDEX
   HX - HEAT INDEX
  VSB - VISIBILITY



USA.gov is the U.S. government's official web portal to all federal, state and local government web resources and services.